When you browse on this site, cookies collect data to enhance your experience and personalize the content and advertising you see.
Visit our Privacy Policy to learn more. By continuing to use the site, you agree to this use of cookies and data.
EN

Hourly Weather Lusaka

Today, 14 July, Tuesday

Time Temperature Precipitation Wind Pressure Humidity
00:00 +14°C° 0 mm 2 mps 657 mmHg 63%
01:00 +14°C° 0 mm 2 mps 657 mmHg 62%
02:00 +13°C° 0 mm 1 mps 657 mmHg 62%
03:00 +13°C° 0 mm 1 mps 656 mmHg 61%
04:00 +13°C° 0 mm 1 mps 656 mmHg 60%
05:00 +12°C° 0 mm 1 mps 656 mmHg 60%
06:00 +14°C° 0 mm 1 mps 657 mmHg 55%
07:00 +15°C° 0 mm 1 mps 658 mmHg 50%
08:00 +18°C° 0 mm 1 mps 659 mmHg 46%
09:00 +21°C° 0 mm 1 mps 660 mmHg 38%
10:00 +24°C° 0 mm 2 mps 660 mmHg 29%
11:00 +27°C° 0 mm 2 mps 661 mmHg 21%
12:00 +28°C° 0 mm 2 mps 660 mmHg 19%
13:00 +28°C° 0 mm 2 mps 660 mmHg 18%
14:00 +29°C° 0 mm 2 mps 660 mmHg 16%
15:00 +28°C° 0 mm 3 mps 659 mmHg 18%
16:00 +27°C° 0 mm 3 mps 659 mmHg 20%
17:00 +26°C° 0 mm 3 mps 658 mmHg 23%
18:00 +22°C° 0 mm 3 mps 658 mmHg 28%
19:00 +19°C° 0 mm 3 mps 658 mmHg 33%
20:00 +17°C° 0 mm 2 mps 657 mmHg 39%
21:00 +16°C° 0 mm 2 mps 658 mmHg 40%
22:00 +16°C° 0 mm 2 mps 658 mmHg 41%
23:00 +15°C° 0 mm 2 mps 658 mmHg 42%

Tomorrow, 15 July, Wednesday

Time Temperature Precipitation Wind Pressure Humidity
00:00 +15°C° 0 mm 2 mps 658 mmHg 42%
01:00 +15°C° 0 mm 1 mps 658 mmHg 43%
02:00 +15°C° 0 mm 1 mps 658 mmHg 43%
03:00 +14°C° 0 mm 1 mps 658 mmHg 45%
04:00 +13°C° 0 mm 1 mps 658 mmHg 46%
05:00 +13°C° 0 mm 1 mps 658 mmHg 48%
06:00 +14°C° 0 mm 2 mps 659 mmHg 46%
07:00 +15°C° 0 mm 2 mps 660 mmHg 43%
08:00 +16°C° 0 mm 3 mps 661 mmHg 41%
09:00 +19°C° 0 mm 4 mps 662 mmHg 36%
10:00 +21°C° 0 mm 4 mps 663 mmHg 31%
11:00 +25°C° 0 mm 5 mps 664 mmHg 26%
12:00 +26°C° 0 mm 5 mps 663 mmHg 24%
13:00 +26°C° 0 mm 5 mps 663 mmHg 22%
14:00 +27°C° 0 mm 5 mps 662 mmHg 19%
15:00 +26°C° 0 mm 5 mps 662 mmHg 21%
16:00 +25°C° 0 mm 5 mps 662 mmHg 22%
17:00 +23°C° 0 mm 5 mps 661 mmHg 24%
18:00 +21°C° 0 mm 4 mps 661 mmHg 26%
19:00 +19°C° 0 mm 4 mps 661 mmHg 28%
20:00 +17°C° 0 mm 4 mps 661 mmHg 31%
21:00 +16°C° 0 mm 5 mps 662 mmHg 36%
22:00 +15°C° 0 mm 5 mps 662 mmHg 41%
23:00 +14°C° 0 mm 5 mps 662 mmHg 46%

Day after tomorrow, 16 July, Thursday

Time Temperature Precipitation Wind Pressure Humidity
00:00 +13°C° 0 mm 5 mps 662 mmHg 55%
01:00 +12°C° 0 mm 5 mps 662 mmHg 65%
02:00 +12°C° 0 mm 5 mps 662 mmHg 74%
03:00 +11°C° 0 mm 6 mps 662 mmHg 73%
04:00 +11°C° 0 mm 6 mps 662 mmHg 71%
05:00 +11°C° 0 mm 7 mps 663 mmHg 70%
06:00 +11°C° 0 mm 7 mps 663 mmHg 69%
07:00 +11°C° 0 mm 6 mps 664 mmHg 67%
08:00 +11°C° 0 mm 6 mps 664 mmHg 66%
09:00 +13°C° 0 mm 6 mps 665 mmHg 61%
10:00 +14°C° 0 mm 5 mps 665 mmHg 57%
11:00 +14°C° 0 mm 5 mps 665 mmHg 52%
12:00 +16°C° 0 mm 5 mps 665 mmHg 47%
13:00 +17°C° 0 mm 5 mps 664 mmHg 41%
14:00 +20°C° 0 mm 4 mps 664 mmHg 36%
15:00 +19°C° 0 mm 4 mps 663 mmHg 36%
16:00 +19°C° 0 mm 4 mps 663 mmHg 36%
17:00 +19°C° 0 mm 4 mps 662 mmHg 37%
18:00 +17°C° 0 mm 4 mps 662 mmHg 42%
19:00 +14°C° 0 mm 3 mps 662 mmHg 48%
20:00 +11°C° 0 mm 3 mps 662 mmHg 54%
21:00 +11°C° 0 mm 3 mps 662 mmHg 55%
22:00 +10°C° 0 mm 3 mps 662 mmHg 57%
23:00 +10°C° 0 mm 3 mps 662 mmHg 59%

17 July, Friday

Time Temperature Precipitation Wind Pressure Humidity
00:00 +10°C° 0 mm 3 mps 662 mmHg 61%
01:00 +8°C° 0 mm 4 mps 662 mmHg 64%
02:00 +8°C° 0 mm 4 mps 662 mmHg 66%
03:00 +7°C° 0 mm 4 mps 662 mmHg 70%
04:00 +7°C° 0 mm 5 mps 662 mmHg 74%
05:00 +6°C° 0 mm 5 mps 662 mmHg 78%
06:00 +7°C° 0 mm 5 mps 662 mmHg 73%
07:00 +8°C° 0 mm 5 mps 663 mmHg 69%
08:00 +8°C° 0 mm 6 mps 663 mmHg 65%
09:00 +11°C° 0 mm 6 mps 664 mmHg 58%
10:00 +14°C° 0 mm 6 mps 664 mmHg 50%
11:00 +16°C° 0 mm 6 mps 664 mmHg 43%
12:00 +16°C° 0 mm 6 mps 664 mmHg 41%
13:00 +17°C° 0 mm 5 mps 663 mmHg 38%
14:00 +19°C° 0 mm 5 mps 662 mmHg 35%
15:00 +17°C° 0 mm 5 mps 662 mmHg 35%
16:00 +17°C° 0 mm 5 mps 662 mmHg 36%
17:00 +18°C° 0 mm 4 mps 661 mmHg 36%
18:00 +14°C° 0 mm 4 mps 661 mmHg 43%
19:00 +12°C° 0 mm 3 mps 661 mmHg 50%
20:00 +10°C° 0 mm 2 mps 661 mmHg 57%
21:00 +10°C° 0 mm 2 mps 661 mmHg 61%
22:00 +9°C° 0 mm 2 mps 661 mmHg 65%
23:00 +9°C° 0 mm 3 mps 661 mmHg 70%

18 July, Saturday

Time Temperature Precipitation Wind Pressure Humidity
00:00 +8°C° 0 mm 3 mps 661 mmHg 74%
01:00 +8°C° 0 mm 3 mps 660 mmHg 78%
02:00 +8°C° 0 mm 3 mps 660 mmHg 81%
03:00 +8°C° 0 mm 3 mps 660 mmHg 83%
04:00 +8°C° 0 mm 3 mps 660 mmHg 84%
05:00 +6°C° 0 mm 4 mps 660 mmHg 86%
06:00 +7°C° 0 mm 4 mps 661 mmHg 82%
07:00 +8°C° 0 mm 5 mps 662 mmHg 77%
08:00 +9°C° 0 mm 5 mps 662 mmHg 73%
09:00 +12°C° 0 mm 5 mps 663 mmHg 63%
10:00 +15°C° 0 mm 5 mps 663 mmHg 53%
11:00 +17°C° 0 mm 5 mps 664 mmHg 43%
12:00 +19°C° 0 mm 5 mps 663 mmHg 40%
13:00 +20°C° 0 mm 5 mps 662 mmHg 36%
14:00 +21°C° 0 mm 5 mps 662 mmHg 33%
15:00 +20°C° 0 mm 5 mps 661 mmHg 34%
16:00 +20°C° 0 mm 4 mps 661 mmHg 35%
17:00 +19°C° 0 mm 4 mps 661 mmHg 36%
18:00 +17°C° 0 mm 4 mps 660 mmHg 44%
19:00 +13°C° 0 mm 3 mps 660 mmHg 52%
20:00 +12°C° 0 mm 2 mps 660 mmHg 59%
21:00 +11°C° 0 mm 3 mps 660 mmHg 63%
22:00 +10°C° 0 mm 3 mps 660 mmHg 67%
23:00 +10°C° 0 mm 3 mps 660 mmHg 71%

19 July, Sunday

Time Temperature Precipitation Wind Pressure Humidity
00:00 +10°C° 0 mm 3 mps 660 mmHg 73%
01:00 +9°C° 0 mm 3 mps 660 mmHg 76%
02:00 +9°C° 0 mm 3 mps 659 mmHg 78%
03:00 +9°C° 0 mm 3 mps 659 mmHg 81%
04:00 +9°C° 0 mm 3 mps 659 mmHg 83%
05:00 +9°C° 0 mm 3 mps 659 mmHg 86%
06:00 +10°C° 0 mm 4 mps 660 mmHg 83%
07:00 +10°C° 0 mm 5 mps 661 mmHg 81%
08:00 +12°C° 0 mm 5 mps 661 mmHg 78%
09:00 +13°C° 0 mm 5 mps 662 mmHg 70%
10:00 +15°C° 0 mm 5 mps 662 mmHg 61%
11:00 +17°C° 0 mm 5 mps 663 mmHg 53%
12:00 +19°C° 0 mm 4 mps 662 mmHg 47%
13:00 +20°C° 0 mm 4 mps 662 mmHg 42%
14:00 +22°C° 0 mm 4 mps 661 mmHg 37%
15:00 +21°C° 0 mm 4 mps 661 mmHg 37%
16:00 +21°C° 0 mm 3 mps 661 mmHg 38%
17:00 +20°C° 0 mm 3 mps 660 mmHg 38%
18:00 +18°C° 0 mm 3 mps 660 mmHg 45%
19:00 +16°C° 0 mm 3 mps 660 mmHg 52%
20:00 +12°C° 0 mm 3 mps 659 mmHg 59%
21:00 +12°C° 0 mm 3 mps 659 mmHg 62%
22:00 +12°C° 0 mm 3 mps 659 mmHg 64%
23:00 +11°C° 0 mm 3 mps 659 mmHg 67%
Show more